Year,Month,Day,Hour,Minute,Value (Times are PST for windspeed in km/hr)
2006,12,12,00,00,8.60
2006,12,12,00,01,5.10
2006,12,12,00,02,9.80
2006,12,12,00,03,8.00
2006,12,12,00,04,4.90
2006,12,12,00,05,5.40
2006,12,12,00,06,5.80
2006,12,12,00,07,5.20
2006,12,12,00,08,13.00
2006,12,12,00,09,6.40
2006,12,12,00,10,4.70
2006,12,12,00,11,3.20
2006,12,12,00,12,5.60
2006,12,12,00,13,6.00
2006,12,12,00,14,4.80
2006,12,12,00,15,3.90
2006,12,12,00,16,6.40
2006,12,12,00,17,9.00
2006,12,12,00,18,7.50
2006,12,12,00,19,8.50
2006,12,12,00,20,5.20
2006,12,12,00,21,7.50
2006,12,12,00,22,9.00
2006,12,12,00,23,7.10
2006,12,12,00,24,7.30
2006,12,12,00,25,12.10
2006,12,12,00,26,17.10
2006,12,12,00,27,7.70
2006,12,12,00,28,4.70
2006,12,12,00,29,6.40
2006,12,12,00,30,6.80
2006,12,12,00,31,3.50
2006,12,12,00,32,1.60
2006,12,12,00,33,12.50
2006,12,12,00,34,11.30
2006,12,12,00,35,12.20
2006,12,12,00,36,15.40
2006,12,12,00,37,15.90
2006,12,12,00,38,10.30
2006,12,12,00,39,7.50
2006,12,12,00,40,7.20
2006,12,12,00,41,6.90
2006,12,12,00,42,5.50
2006,12,12,00,43,8.60
2006,12,12,00,44,7.30
2006,12,12,00,45,10.60
2006,12,12,00,46,5.80
2006,12,12,00,47,7.80
2006,12,12,00,48,9.00
2006,12,12,00,49,10.20
2006,12,12,00,50,10.20
2006,12,12,00,51,6.20
2006,12,12,00,52,4.80
2006,12,12,00,53,5.70
2006,12,12,00,54,8.70
2006,12,12,00,55,3.70
2006,12,12,00,56,5.70
2006,12,12,00,57,8.40
2006,12,12,00,58,7.60
2006,12,12,00,59,6.60
2006,12,12,01,00,7.00
2006,12,12,01,01,4.70
2006,12,12,01,02,9.60
2006,12,12,01,03,7.40
2006,12,12,01,04,4.80
2006,12,12,01,05,6.90
2006,12,12,01,06,4.30
2006,12,12,01,07,4.00
2006,12,12,01,08,6.00
2006,12,12,01,09,4.10
2006,12,12,01,10,4.30
2006,12,12,01,11,3.60
2006,12,12,01,12,3.60
2006,12,12,01,13,3.40
2006,12,12,01,14,2.00
2006,12,12,01,15,1.80
2006,12,12,01,16,0.70
2006,12,12,01,17,0.40
2006,12,12,01,18,0.20
2006,12,12,01,19,3.00
2006,12,12,01,20,5.20
2006,12,12,01,21,4.50
2006,12,12,01,22,3.70
2006,12,12,01,23,3.90
2006,12,12,01,24,6.50
2006,12,12,01,25,7.00
2006,12,12,01,26,4.00
2006,12,12,01,27,3.20
2006,12,12,01,28,5.40
2006,12,12,01,29,5.60
2006,12,12,01,30,6.50
2006,12,12,01,31,3.60
2006,12,12,01,32,6.20
2006,12,12,01,33,6.80
2006,12,12,01,34,4.00
2006,12,12,01,35,4.70
2006,12,12,01,36,4.30
2006,12,12,01,37,2.80
2006,12,12,01,38,2.90
2006,12,12,01,39,3.20
2006,12,12,01,40,5.70
2006,12,12,01,41,4.60
2006,12,12,01,42,3.90
2006,12,12,01,43,2.00
2006,12,12,01,44,5.60
2006,12,12,01,45,5.60
2006,12,12,01,46,5.50
2006,12,12,01,47,1.60
2006,12,12,01,48,3.50
2006,12,12,01,49,3.60
2006,12,12,01,50,3.70
2006,12,12,01,51,1.30
2006,12,12,01,52,4.70
2006,12,12,01,53,4.70
2006,12,12,01,54,3.60
2006,12,12,01,55,1.40
2006,12,12,01,56,1.90
2006,12,12,01,57,4.40
2006,12,12,01,58,2.20
2006,12,12,01,59,9.90
2006,12,12,02,00,16.70
2006,12,12,02,01,12.00
2006,12,12,02,02,11.30
2006,12,12,02,03,8.00
2006,12,12,02,04,9.20
2006,12,12,02,05,3.90
2006,12,12,02,06,6.50
2006,12,12,02,07,11.70
2006,12,12,02,08,12.70
2006,12,12,02,09,8.90
2006,12,12,02,10,13.60
2006,12,12,02,11,19.30
2006,12,12,02,12,15.90
2006,12,12,02,13,9.30
2006,12,12,02,14,7.50
2006,12,12,02,15,4.80
2006,12,12,02,16,6.00
2006,12,12,02,17,7.90
2006,12,12,02,18,9.10
2006,12,12,02,19,13.10
2006,12,12,02,20,13.30
2006,12,12,02,21,13.20
2006,12,12,02,22,8.10
2006,12,12,02,23,2.50
2006,12,12,02,24,1.00
2006,12,12,02,25,2.50
2006,12,12,02,26,0.20
2006,12,12,02,27,6.70
2006,12,12,02,28,11.40
2006,12,12,02,29,9.70
2006,12,12,02,30,6.80
2006,12,12,02,31,7.00
2006,12,12,02,32,9.80
2006,12,12,02,33,8.10
2006,12,12,02,34,6.00
2006,12,12,02,35,4.70
2006,12,12,02,36,7.60
2006,12,12,02,37,8.60
2006,12,12,02,38,5.70
2006,12,12,02,39,1.70
2006,12,12,02,40,4.10
2006,12,12,02,41,11.40
2006,12,12,02,42,11.50
2006,12,12,02,43,11.80
2006,12,12,02,44,4.40
2006,12,12,02,45,2.50
2006,12,12,02,46,6.20
2006,12,12,02,47,1.10
2006,12,12,02,48,8.40
2006,12,12,02,49,8.20
2006,12,12,02,50,8.50
2006,12,12,02,51,3.00
2006,12,12,02,52,11.00
2006,12,12,02,53,4.50
2006,12,12,02,54,4.70
2006,12,12,02,55,4.00
2006,12,12,02,56,1.00
2006,12,12,02,57,3.60
2006,12,12,02,58,10.50
2006,12,12,02,59,10.00
2006,12,12,03,00,7.10
2006,12,12,03,01,2.80
2006,12,12,03,02,3.50
2006,12,12,03,03,9.80
2006,12,12,03,04,11.00
2006,12,12,03,05,7.50
2006,12,12,03,06,5.30
2006,12,12,03,07,8.40
2006,12,12,03,08,13.10
2006,12,12,03,09,4.20
2006,12,12,03,10,3.40
2006,12,12,03,11,8.60
2006,12,12,03,12,10.50
2006,12,12,03,13,10.50
2006,12,12,03,14,8.60
2006,12,12,03,15,6.10
2006,12,12,03,16,4.70
2006,12,12,03,17,3.60
2006,12,12,03,18,5.20
2006,12,12,03,19,7.90
2006,12,12,03,20,5.10
2006,12,12,03,21,7.00
2006,12,12,03,22,3.30
2006,12,12,03,23,6.00
2006,12,12,03,24,3.10
2006,12,12,03,25,1.60
2006,12,12,03,26,3.00
2006,12,12,03,27,2.30
2006,12,12,03,28,2.60
2006,12,12,03,29,2.20
2006,12,12,03,30,3.50
2006,12,12,03,31,3.70
2006,12,12,03,32,4.70
2006,12,12,03,33,9.10
2006,12,12,03,34,7.30
2006,12,12,03,35,4.10
2006,12,12,03,36,10.50
2006,12,12,03,37,14.20
2006,12,12,03,38,8.10
2006,12,12,03,39,6.20
2006,12,12,03,40,8.60
2006,12,12,03,41,7.40
2006,12,12,03,42,9.60
2006,12,12,03,43,1.80
2006,12,12,03,44,1.60
2006,12,12,03,45,0.30
2006,12,12,03,46,5.10
2006,12,12,03,47,5.30
2006,12,12,03,48,5.70
2006,12,12,03,49,5.20
2006,12,12,03,50,12.20
2006,12,12,03,51,8.80
2006,12,12,03,52,10.20
2006,12,12,03,53,7.00
2006,12,12,03,54,12.60
2006,12,12,03,55,4.60
2006,12,12,03,56,4.20
2006,12,12,03,57,4.40
2006,12,12,03,58,3.10
2006,12,12,03,59,1.80
2006,12,12,04,00,1.50
2006,12,12,04,01,1.40
2006,12,12,04,02,3.20
2006,12,12,04,03,6.80
2006,12,12,04,04,7.00
2006,12,12,04,05,4.00
2006,12,12,04,06,5.20
2006,12,12,04,07,5.50
2006,12,12,04,08,5.50
2006,12,12,04,09,7.80
2006,12,12,04,10,3.60
2006,12,12,04,11,3.80
2006,12,12,04,12,6.10
2006,12,12,04,13,5.40
2006,12,12,04,14,4.90
2006,12,12,04,15,5.70
2006,12,12,04,16,5.10
2006,12,12,04,17,8.10
2006,12,12,04,18,17.70
2006,12,12,04,19,14.40
2006,12,12,04,20,10.80
2006,12,12,04,21,13.80
2006,12,12,04,22,12.50
2006,12,12,04,23,12.50
2006,12,12,04,24,10.50
2006,12,12,04,25,13.60
2006,12,12,04,26,16.60
2006,12,12,04,27,8.50
2006,12,12,04,28,6.10
2006,12,12,04,29,10.70
2006,12,12,04,30,6.50
2006,12,12,04,31,8.50
2006,12,12,04,32,12.40
2006,12,12,04,33,5.50
2006,12,12,04,34,14.30
2006,12,12,04,35,8.10
2006,12,12,04,36,4.70
2006,12,12,04,37,6.90
2006,12,12,04,38,6.50
2006,12,12,04,39,12.80
2006,12,12,04,40,12.80
2006,12,12,04,41,15.10
2006,12,12,04,42,11.50
2006,12,12,04,43,15.40
2006,12,12,04,44,9.10
2006,12,12,04,45,9.60
2006,12,12,04,46,8.50
2006,12,12,04,47,7.60
2006,12,12,04,48,7.10
2006,12,12,04,49,10.80
2006,12,12,04,50,13.10
2006,12,12,04,51,5.50
2006,12,12,04,52,10.40
2006,12,12,04,53,13.80
2006,12,12,04,54,10.00
2006,12,12,04,55,11.90
2006,12,12,04,56,5.30
2006,12,12,04,57,6.80
2006,12,12,04,58,4.80
2006,12,12,04,59,9.30
2006,12,12,05,00,13.60
2006,12,12,05,01,8.50
2006,12,12,05,02,2.70
2006,12,12,05,03,10.90
2006,12,12,05,04,10.10
2006,12,12,05,05,9.70
2006,12,12,05,06,10.20
2006,12,12,05,07,11.50
2006,12,12,05,08,13.50
2006,12,12,05,09,8.50
2006,12,12,05,10,8.30
2006,12,12,05,11,12.70
2006,12,12,05,12,9.00
2006,12,12,05,13,6.40
2006,12,12,05,14,7.50
2006,12,12,05,15,10.10
2006,12,12,05,16,5.10
2006,12,12,05,17,3.30
2006,12,12,05,18,2.70
2006,12,12,05,19,13.00
2006,12,12,05,20,11.30
2006,12,12,05,21,6.50
2006,12,12,05,22,2.50
2006,12,12,05,23,0.50
2006,12,12,05,24,5.80
2006,12,12,05,25,4.30
2006,12,12,05,26,8.90
2006,12,12,05,27,7.40
2006,12,12,05,28,9.10
2006,12,12,05,29,13.00
2006,12,12,05,30,17.80
2006,12,12,05,31,7.20
2006,12,12,05,32,8.50
2006,12,12,05,33,8.10
2006,12,12,05,34,15.30
2006,12,12,05,35,13.40
2006,12,12,05,36,14.70
2006,12,12,05,37,12.40
2006,12,12,05,38,14.70
2006,12,12,05,39,13.90
2006,12,12,05,40,6.40
2006,12,12,05,41,6.80
2006,12,12,05,42,4.40
2006,12,12,05,43,2.80
2006,12,12,05,44,10.20
2006,12,12,05,45,11.30
2006,12,12,05,46,16.70
2006,12,12,05,47,17.10
2006,12,12,05,48,5.30
2006,12,12,05,49,7.30
2006,12,12,05,50,11.80
2006,12,12,05,51,4.30
2006,12,12,05,52,6.00
2006,12,12,05,53,12.60
2006,12,12,05,54,6.30
2006,12,12,05,55,3.00
2006,12,12,05,56,4.70
2006,12,12,05,57,11.70
2006,12,12,05,58,8.00
2006,12,12,05,59,12.30
2006,12,12,06,00,14.90
2006,12,12,06,01,10.00
2006,12,12,06,02,8.10
2006,12,12,06,03,11.60
2006,12,12,06,04,12.40
2006,12,12,06,05,8.20
2006,12,12,06,06,6.60
2006,12,12,06,07,6.10
2006,12,12,06,08,3.90
2006,12,12,06,09,4.70
2006,12,12,06,10,5.20
2006,12,12,06,11,1.20
2006,12,12,06,12,0.70
2006,12,12,06,13,0.10
2006,12,12,06,14,1.50
2006,12,12,06,15,0.60
2006,12,12,06,16,4.80
2006,12,12,06,17,1.20
2006,12,12,06,18,4.30
2006,12,12,06,19,5.50
2006,12,12,06,20,0.60
2006,12,12,06,21,4.10
2006,12,12,06,22,10.30
2006,12,12,06,23,4.10
2006,12,12,06,24,4.30
2006,12,12,06,25,6.10
2006,12,12,06,26,4.20
2006,12,12,06,27,2.60
2006,12,12,06,28,0.10
2006,12,12,06,29,2.40
2006,12,12,06,30,3.80
2006,12,12,06,31,4.70
2006,12,12,06,32,0.80
2006,12,12,06,33,3.00
2006,12,12,06,34,2.30
2006,12,12,06,35,0.10
2006,12,12,06,36,0.00
2006,12,12,06,37,1.30
2006,12,12,06,38,0.70
2006,12,12,06,39,1.70
2006,12,12,06,40,1.80
2006,12,12,06,41,1.60
2006,12,12,06,42,1.30
2006,12,12,06,43,0.80
2006,12,12,06,44,8.50
2006,12,12,06,45,5.20
2006,12,12,06,46,2.00
2006,12,12,06,47,4.60
2006,12,12,06,48,3.00
2006,12,12,06,49,1.90
2006,12,12,06,50,1.80
2006,12,12,06,51,1.10
2006,12,12,06,52,3.60
2006,12,12,06,53,4.90
2006,12,12,06,54,6.10
2006,12,12,06,55,4.60
2006,12,12,06,56,1.50
2006,12,12,06,57,0.50
2006,12,12,06,58,1.50
2006,12,12,06,59,2.40
2006,12,12,07,00,0.90
2006,12,12,07,01,1.70
2006,12,12,07,02,4.10
2006,12,12,07,03,4.50
2006,12,12,07,04,8.90
2006,12,12,07,05,11.20
2006,12,12,07,06,3.70
2006,12,12,07,07,3.80
2006,12,12,07,08,3.00
2006,12,12,07,09,1.00
2006,12,12,07,10,0.30
2006,12,12,07,11,0.00
2006,12,12,07,12,1.70
2006,12,12,07,13,3.10
2006,12,12,07,14,8.30
2006,12,12,07,15,8.90
2006,12,12,07,16,18.30
2006,12,12,07,17,9.40
2006,12,12,07,18,6.40
2006,12,12,07,19,3.60
2006,12,12,07,20,1.40
2006,12,12,07,21,2.30
2006,12,12,07,22,4.10
2006,12,12,07,23,2.80
2006,12,12,07,24,1.60
2006,12,12,07,25,0.50
2006,12,12,07,26,1.40
2006,12,12,07,27,0.70
2006,12,12,07,28,3.50
2006,12,12,07,29,1.90
2006,12,12,07,30,1.50
2006,12,12,07,31,4.20
2006,12,12,07,32,3.20
2006,12,12,07,33,4.50
2006,12,12,07,34,3.90
2006,12,12,07,35,3.60
2006,12,12,07,36,4.50
2006,12,12,07,37,4.30
2006,12,12,07,38,5.60
2006,12,12,07,39,8.30
2006,12,12,07,40,3.90
2006,12,12,07,41,2.90
2006,12,12,07,42,3.00
2006,12,12,07,43,7.00
2006,12,12,07,44,4.40
2006,12,12,07,45,6.90
2006,12,12,07,46,8.80
2006,12,12,07,47,3.10
2006,12,12,07,48,3.50
2006,12,12,07,49,3.70
2006,12,12,07,50,4.60
2006,12,12,07,51,5.40
2006,12,12,07,52,2.30
2006,12,12,07,53,0.30
2006,12,12,07,54,3.20
2006,12,12,07,55,3.50
2006,12,12,07,56,1.00
2006,12,12,07,57,0.00
2006,12,12,07,58,1.20
2006,12,12,07,59,2.70
2006,12,12,08,00,3.50
2006,12,12,08,01,1.10
2006,12,12,08,02,2.90
2006,12,12,08,03,1.30
2006,12,12,08,04,3.50
2006,12,12,08,05,1.50
2006,12,12,08,06,0.60
2006,12,12,08,07,2.70
2006,12,12,08,08,2.60
2006,12,12,08,09,2.10
2006,12,12,08,10,1.90
2006,12,12,08,11,2.20
2006,12,12,08,12,2.10
2006,12,12,08,13,3.90
2006,12,12,08,14,4.30
2006,12,12,08,15,5.60
2006,12,12,08,16,4.70
2006,12,12,08,17,5.40
2006,12,12,08,18,0.30
2006,12,12,08,19,5.80
2006,12,12,08,20,3.90
2006,12,12,08,21,4.00
2006,12,12,08,22,2.60
2006,12,12,08,23,1.60
2006,12,12,08,24,1.50
2006,12,12,08,25,0.20
2006,12,12,08,26,0.10
2006,12,12,08,27,2.70
2006,12,12,08,28,6.10
2006,12,12,08,29,4.00
2006,12,12,08,30,3.10
2006,12,12,08,31,3.90
2006,12,12,08,32,6.70
2006,12,12,08,33,4.50
2006,12,12,08,34,10.40
2006,12,12,08,35,6.90
2006,12,12,08,36,7.00
2006,12,12,08,37,7.70
2006,12,12,08,38,9.30
2006,12,12,08,39,12.20
2006,12,12,08,40,5.90
2006,12,12,08,41,6.70
2006,12,12,08,42,7.30
2006,12,12,08,43,10.80
2006,12,12,08,44,11.00
2006,12,12,08,45,12.10
2006,12,12,08,46,8.10
2006,12,12,08,47,7.00
2006,12,12,08,48,5.80
2006,12,12,08,49,8.00
2006,12,12,08,50,16.50
2006,12,12,08,51,5.50
2006,12,12,08,52,4.10
2006,12,12,08,53,4.20
2006,12,12,08,54,5.80
2006,12,12,08,55,6.10
2006,12,12,08,56,6.90
2006,12,12,08,57,5.80
2006,12,12,08,58,1.80
2006,12,12,08,59,6.70
2006,12,12,09,00,6.40
2006,12,12,09,01,4.80
2006,12,12,09,02,6.50
2006,12,12,09,03,12.90
2006,12,12,09,04,8.10
2006,12,12,09,05,3.30
2006,12,12,09,06,2.50
2006,12,12,09,07,4.20
2006,12,12,09,08,0.60
2006,12,12,09,09,0.30
2006,12,12,09,10,0.10
2006,12,12,09,11,0.00
2006,12,12,09,12,0.00
2006,12,12,09,13,0.00
2006,12,12,09,14,1.40
2006,12,12,09,15,0.10
2006,12,12,09,16,1.10
2006,12,12,09,17,2.90
2006,12,12,09,18,0.50
2006,12,12,09,19,1.50
2006,12,12,09,20,0.70
2006,12,12,09,21,2.10
2006,12,12,09,22,3.50
2006,12,12,09,23,3.90
2006,12,12,09,24,2.40
2006,12,12,09,25,0.70
2006,12,12,09,26,0.50
2006,12,12,09,27,1.40
2006,12,12,09,28,1.70
2006,12,12,09,29,4.30
2006,12,12,09,30,3.50
2006,12,12,09,31,1.50
2006,12,12,09,32,1.80
2006,12,12,09,33,0.30
2006,12,12,09,34,0.50
2006,12,12,09,35,1.70
2006,12,12,09,36,1.70
2006,12,12,09,37,1.60
2006,12,12,09,38,1.20
2006,12,12,09,39,2.60
2006,12,12,09,40,3.30
2006,12,12,09,41,1.30
2006,12,12,09,42,4.30
2006,12,12,09,43,4.90
2006,12,12,09,44,6.10
2006,12,12,09,45,5.20
2006,12,12,09,46,2.90
2006,12,12,09,47,3.10
2006,12,12,09,48,1.00
2006,12,12,09,49,2.80
2006,12,12,09,50,3.10
2006,12,12,09,51,3.80
2006,12,12,09,52,5.10
2006,12,12,09,53,3.50
2006,12,12,09,54,2.60
2006,12,12,09,55,1.50
2006,12,12,09,56,2.40
2006,12,12,09,57,2.50
2006,12,12,09,58,3.40
2006,12,12,09,59,3.20
2006,12,12,10,00,3.80
2006,12,12,10,01,2.00
2006,12,12,10,02,2.70
2006,12,12,10,03,1.20
2006,12,12,10,04,0.00
2006,12,12,10,05,0.20
2006,12,12,10,06,0.10
2006,12,12,10,07,1.00
2006,12,12,10,08,1.50
2006,12,12,10,09,0.80
2006,12,12,10,10,0.00
2006,12,12,10,11,0.10
2006,12,12,10,12,0.00
2006,12,12,10,13,1.60
2006,12,12,10,14,0.80
2006,12,12,10,15,1.90
2006,12,12,10,16,1.30
2006,12,12,10,17,2.30
2006,12,12,10,18,1.80
2006,12,12,10,19,3.70
2006,12,12,10,20,3.60
2006,12,12,10,21,2.20
2006,12,12,10,22,3.30
2006,12,12,10,23,1.80
2006,12,12,10,24,4.20
2006,12,12,10,25,5.60
2006,12,12,10,26,6.60
2006,12,12,10,27,4.90
2006,12,12,10,28,5.70
2006,12,12,10,29,6.00
2006,12,12,10,30,4.60
2006,12,12,10,31,4.20
2006,12,12,10,32,4.30
2006,12,12,10,33,3.20
2006,12,12,10,34,7.10
2006,12,12,10,35,6.50
2006,12,12,10,36,5.00
2006,12,12,10,37,5.10
2006,12,12,10,38,4.80
2006,12,12,10,39,4.60
2006,12,12,10,40,4.60
2006,12,12,10,41,4.20
2006,12,12,10,42,3.00
2006,12,12,10,43,4.70
2006,12,12,10,44,5.30
2006,12,12,10,45,5.90
2006,12,12,10,46,4.70
2006,12,12,10,47,5.70
2006,12,12,10,48,3.90
2006,12,12,10,49,4.30
2006,12,12,10,50,6.20
2006,12,12,10,51,6.20
2006,12,12,10,52,8.40
2006,12,12,10,53,7.10
2006,12,12,10,54,7.70
2006,12,12,10,55,8.30
2006,12,12,10,56,9.40
2006,12,12,10,57,6.40
2006,12,12,10,58,7.20
2006,12,12,10,59,7.30
2006,12,12,11,00,7.00
2006,12,12,11,01,6.50
2006,12,12,11,02,5.40
2006,12,12,11,03,6.80
2006,12,12,11,04,5.40
2006,12,12,11,05,6.50
2006,12,12,11,06,5.80
2006,12,12,11,07,3.00
2006,12,12,11,08,3.40
2006,12,12,11,09,3.90
2006,12,12,11,10,5.90
2006,12,12,11,11,5.20
2006,12,12,11,12,4.70
2006,12,12,11,13,5.30
2006,12,12,11,14,5.50
2006,12,12,11,15,5.00
2006,12,12,11,16,4.10
2006,12,12,11,17,4.30
2006,12,12,11,18,6.10
2006,12,12,11,19,4.30
2006,12,12,11,20,4.20
2006,12,12,11,21,3.30
2006,12,12,11,22,3.60
2006,12,12,11,23,4.60
2006,12,12,11,24,5.70
2006,12,12,11,25,8.00
2006,12,12,11,26,4.70
2006,12,12,11,27,3.70
2006,12,12,11,28,5.80
2006,12,12,11,29,4.00
2006,12,12,11,30,10.20
2006,12,12,11,31,6.20
2006,12,12,11,32,5.10
2006,12,12,11,33,3.90
2006,12,12,11,34,4.70
2006,12,12,11,35,6.00
2006,12,12,11,36,6.60
2006,12,12,11,37,7.20
2006,12,12,11,38,6.00
2006,12,12,11,39,8.70
2006,12,12,11,40,8.90
2006,12,12,11,41,6.30
2006,12,12,11,42,3.40
2006,12,12,11,43,4.50
2006,12,12,11,44,5.40
2006,12,12,11,45,5.50
2006,12,12,11,46,6.30
2006,12,12,11,47,7.80
2006,12,12,11,48,7.30
2006,12,12,11,49,4.50
2006,12,12,11,50,6.50
2006,12,12,11,51,7.20
2006,12,12,11,52,5.70
2006,12,12,11,53,5.50
2006,12,12,11,54,7.00
2006,12,12,11,55,4.00
2006,12,12,11,56,5.50
2006,12,12,11,57,3.90
2006,12,12,11,58,7.50
2006,12,12,11,59,7.40
2006,12,12,12,00,7.20
2006,12,12,12,01,6.80
2006,12,12,12,02,8.40
2006,12,12,12,03,5.90
2006,12,12,12,04,8.40
2006,12,12,12,05,7.60
2006,12,12,12,06,7.00
2006,12,12,12,07,6.40
2006,12,12,12,08,9.10
2006,12,12,12,09,7.10
2006,12,12,12,10,4.70
2006,12,12,12,11,9.40
2006,12,12,12,12,7.50
2006,12,12,12,13,5.80
2006,12,12,12,14,6.00
2006,12,12,12,15,6.00
2006,12,12,12,16,6.10
2006,12,12,12,17,4.80
2006,12,12,12,18,4.10
2006,12,12,12,19,3.80
2006,12,12,12,20,2.20
2006,12,12,12,21,4.90
2006,12,12,12,22,4.60
2006,12,12,12,23,3.60
2006,12,12,12,24,4.40
2006,12,12,12,25,3.50
2006,12,12,12,26,2.30
2006,12,12,12,27,2.90
2006,12,12,12,28,5.30
2006,12,12,12,29,4.70
2006,12,12,12,30,4.10
2006,12,12,12,31,2.60
2006,12,12,12,32,5.30
2006,12,12,12,33,2.20
2006,12,12,12,34,4.00
2006,12,12,12,35,3.50
2006,12,12,12,36,4.30
2006,12,12,12,37,4.60
2006,12,12,12,38,1.60
2006,12,12,12,39,3.60
2006,12,12,12,40,2.90
2006,12,12,12,41,3.80
2006,12,12,12,42,3.00
2006,12,12,12,43,1.90
2006,12,12,12,44,3.00
2006,12,12,12,45,4.30
2006,12,12,12,46,3.80
2006,12,12,12,47,4.00
2006,12,12,12,48,4.70
2006,12,12,12,49,3.80
2006,12,12,12,50,4.10
2006,12,12,12,51,3.30
2006,12,12,12,52,3.60
2006,12,12,12,53,3.70
2006,12,12,12,54,3.90
2006,12,12,12,55,1.90
2006,12,12,12,56,6.00
2006,12,12,12,57,3.20
2006,12,12,12,58,1.90
2006,12,12,12,59,1.10
2006,12,12,13,00,2.00
2006,12,12,13,01,6.40
2006,12,12,13,02,4.30
2006,12,12,13,03,1.50
2006,12,12,13,04,5.00
2006,12,12,13,05,4.10
2006,12,12,13,06,8.90
2006,12,12,13,07,5.20
2006,12,12,13,08,4.40
2006,12,12,13,09,3.90
2006,12,12,13,10,7.40
2006,12,12,13,11,8.30
2006,12,12,13,12,6.00
2006,12,12,13,13,4.70
2006,12,12,13,14,4.10
2006,12,12,13,15,3.10
2006,12,12,13,16,3.60
2006,12,12,13,17,7.40
2006,12,12,13,18,9.40
2006,12,12,13,19,7.20
2006,12,12,13,20,6.80
2006,12,12,13,21,5.50
2006,12,12,13,22,3.70
2006,12,12,13,23,5.30
2006,12,12,13,24,3.90
2006,12,12,13,25,4.80
2006,12,12,13,26,5.30
2006,12,12,13,27,4.60
2006,12,12,13,28,3.90
2006,12,12,13,29,5.70
2006,12,12,13,30,2.50
2006,12,12,13,31,2.90
2006,12,12,13,32,2.20
2006,12,12,13,33,2.00
2006,12,12,13,34,4.40
2006,12,12,13,35,5.40
2006,12,12,13,36,4.30
2006,12,12,13,37,5.20
2006,12,12,13,38,10.90
2006,12,12,13,39,8.40
2006,12,12,13,40,9.60
2006,12,12,13,41,10.60
2006,12,12,13,42,9.00
2006,12,12,13,43,8.30
2006,12,12,13,44,7.70
2006,12,12,13,45,9.70
2006,12,12,13,46,6.50
2006,12,12,13,47,10.10
2006,12,12,13,48,10.00
2006,12,12,13,49,8.10
2006,12,12,13,50,6.10
2006,12,12,13,51,4.20
2006,12,12,13,52,3.70
2006,12,12,13,53,5.00
2006,12,12,13,54,4.50
2006,12,12,13,55,4.30
2006,12,12,13,56,2.30
2006,12,12,13,57,4.40
2006,12,12,13,58,4.00
2006,12,12,13,59,4.70
2006,12,12,14,00,2.30
2006,12,12,14,01,6.00
2006,12,12,14,02,4.00
2006,12,12,14,03,4.70
2006,12,12,14,04,4.20
2006,12,12,14,05,4.20
2006,12,12,14,06,5.80
2006,12,12,14,07,7.60
2006,12,12,14,08,4.10
2006,12,12,14,09,5.90
2006,12,12,14,10,4.60
2006,12,12,14,11,5.90
2006,12,12,14,12,6.00
2006,12,12,14,13,4.30
2006,12,12,14,14,3.90
2006,12,12,14,15,2.70
2006,12,12,14,16,3.40
2006,12,12,14,17,4.70
2006,12,12,14,18,4.80
2006,12,12,14,19,4.80
2006,12,12,14,20,4.80
2006,12,12,14,21,2.40
2006,12,12,14,22,3.40
2006,12,12,14,23,2.20
2006,12,12,14,24,1.40
2006,12,12,14,25,1.10
2006,12,12,14,26,2.30
2006,12,12,14,27,1.40
2006,12,12,14,28,1.50
2006,12,12,14,29,2.00
2006,12,12,14,30,0.90
2006,12,12,14,31,1.50
2006,12,12,14,32,1.40
2006,12,12,14,33,2.30
2006,12,12,14,34,3.50
2006,12,12,14,35,4.70
2006,12,12,14,36,6.80
2006,12,12,14,37,9.30
2006,12,12,14,38,9.00
2006,12,12,14,39,8.20
2006,12,12,14,40,5.80
2006,12,12,14,41,4.70
2006,12,12,14,42,7.40
2006,12,12,14,43,7.60
2006,12,12,14,44,8.10
2006,12,12,14,45,7.60
2006,12,12,14,46,7.10
2006,12,12,14,47,6.10
2006,12,12,14,48,7.20
2006,12,12,14,49,8.70
2006,12,12,14,50,9.50
2006,12,12,14,51,5.90
2006,12,12,14,52,5.80
2006,12,12,14,53,7.30
2006,12,12,14,54,9.30
2006,12,12,14,55,9.00
2006,12,12,14,56,6.40
2006,12,12,14,57,7.80
2006,12,12,14,58,5.40
2006,12,12,14,59,5.20
2006,12,12,15,00,6.70
2006,12,12,15,01,7.60
2006,12,12,15,02,6.00
2006,12,12,15,03,5.40
2006,12,12,15,04,6.90
2006,12,12,15,05,4.30
2006,12,12,15,06,6.10
2006,12,12,15,07,7.80
2006,12,12,15,08,6.50
2006,12,12,15,09,5.10
2006,12,12,15,10,3.90
2006,12,12,15,11,2.40
2006,12,12,15,12,5.70
2006,12,12,15,13,6.20
2006,12,12,15,14,3.60
2006,12,12,15,15,0.80
2006,12,12,15,16,0.70
2006,12,12,15,17,1.90
2006,12,12,15,18,1.30
2006,12,12,15,19,0.90
2006,12,12,15,20,0.90
2006,12,12,15,21,0.30
2006,12,12,15,22,2.40
2006,12,12,15,23,0.30
2006,12,12,15,24,1.80
2006,12,12,15,25,2.20
2006,12,12,15,26,1.80
2006,12,12,15,27,2.50
2006,12,12,15,28,1.40
2006,12,12,15,29,0.90
2006,12,12,15,30,1.10
2006,12,12,15,31,1.50
2006,12,12,15,32,2.90
2006,12,12,15,33,2.90
2006,12,12,15,34,2.50
2006,12,12,15,35,2.30
2006,12,12,15,36,2.40
2006,12,12,15,37,1.90
2006,12,12,15,38,1.90
2006,12,12,15,39,2.30
2006,12,12,15,40,3.00
2006,12,12,15,41,3.10
2006,12,12,15,42,4.10
2006,12,12,15,43,2.90
2006,12,12,15,44,3.00
2006,12,12,15,45,2.50
2006,12,12,15,46,2.40
2006,12,12,15,47,2.20
2006,12,12,15,48,3.30
2006,12,12,15,49,1.60
2006,12,12,15,50,1.10
2006,12,12,15,51,1.40
2006,12,12,15,52,2.20
2006,12,12,15,53,2.00
2006,12,12,15,54,2.10
2006,12,12,15,55,1.80
2006,12,12,15,56,0.90
2006,12,12,15,57,0.20
2006,12,12,15,58,1.00
2006,12,12,15,59,0.30
2006,12,12,16,00,0.10
2006,12,12,16,01,0.20
2006,12,12,16,02,0.00
2006,12,12,16,03,0.00
2006,12,12,16,04,0.00
2006,12,12,16,05,0.00
2006,12,12,16,06,0.00
2006,12,12,16,07,0.00
2006,12,12,16,08,0.00
2006,12,12,16,09,0.00
2006,12,12,16,10,0.00
2006,12,12,16,11,0.00
2006,12,12,16,12,0.00
2006,12,12,16,13,0.00
2006,12,12,16,14,1.20
2006,12,12,16,15,1.80
2006,12,12,16,16,3.50
2006,12,12,16,17,2.40
2006,12,12,16,18,0.60
2006,12,12,16,19,1.40
2006,12,12,16,20,0.40
2006,12,12,16,21,0.00
2006,12,12,16,22,0.00
2006,12,12,16,23,0.00
2006,12,12,16,24,0.00
2006,12,12,16,25,0.00
2006,12,12,16,26,0.00
2006,12,12,16,27,0.00
2006,12,12,16,28,0.00
2006,12,12,16,29,0.00
2006,12,12,16,30,0.00
2006,12,12,16,31,0.00
2006,12,12,16,32,0.00
2006,12,12,16,33,0.00
2006,12,12,16,34,0.00
2006,12,12,16,35,0.00
2006,12,12,16,36,0.20
2006,12,12,16,37,1.10
2006,12,12,16,38,1.50
2006,12,12,16,39,0.30
2006,12,12,16,40,1.60
2006,12,12,16,41,1.50
2006,12,12,16,42,0.60
2006,12,12,16,43,0.70
2006,12,12,16,44,0.50
2006,12,12,16,45,0.00
2006,12,12,16,46,0.20
2006,12,12,16,47,0.20
2006,12,12,16,48,0.00
2006,12,12,16,49,0.00
2006,12,12,16,50,0.00
2006,12,12,16,51,0.10
2006,12,12,16,52,0.80
2006,12,12,16,53,1.20
2006,12,12,16,54,1.30
2006,12,12,16,55,2.00
2006,12,12,16,56,2.50
2006,12,12,16,57,1.10
2006,12,12,16,58,3.30
2006,12,12,16,59,4.00
2006,12,12,17,00,2.70
2006,12,12,17,01,2.60
2006,12,12,17,02,2.70
2006,12,12,17,03,1.00
2006,12,12,17,04,2.70
2006,12,12,17,05,3.50
2006,12,12,17,06,3.60
2006,12,12,17,07,1.80
2006,12,12,17,08,0.10
2006,12,12,17,09,0.50
2006,12,12,17,10,1.00
2006,12,12,17,11,0.50
2006,12,12,17,12,0.80
2006,12,12,17,13,0.10
2006,12,12,17,14,0.60
2006,12,12,17,15,1.30
2006,12,12,17,16,2.60
2006,12,12,17,17,1.50
2006,12,12,17,18,0.80
2006,12,12,17,19,0.00
2006,12,12,17,20,0.60
2006,12,12,17,21,0.00
2006,12,12,17,22,0.10
2006,12,12,17,23,0.00
2006,12,12,17,24,0.30
2006,12,12,17,25,0.90
2006,12,12,17,26,0.00
2006,12,12,17,27,0.50
2006,12,12,17,28,0.10
2006,12,12,17,29,0.00
2006,12,12,17,30,2.30
2006,12,12,17,31,2.10
2006,12,12,17,32,1.10
2006,12,12,17,33,1.50
2006,12,12,17,34,2.30
2006,12,12,17,35,1.60
2006,12,12,17,36,2.70
2006,12,12,17,37,2.90
2006,12,12,17,38,2.60
2006,12,12,17,39,1.40
2006,12,12,17,40,2.20
2006,12,12,17,41,1.20
2006,12,12,17,42,0.00
2006,12,12,17,43,0.00
2006,12,12,17,44,0.00
2006,12,12,17,45,0.60
2006,12,12,17,46,0.60
2006,12,12,17,47,0.00
2006,12,12,17,48,0.10
2006,12,12,17,49,0.20
2006,12,12,17,50,0.10
2006,12,12,17,51,2.20
2006,12,12,17,52,1.80
2006,12,12,17,53,2.30
2006,12,12,17,54,4.30
2006,12,12,17,55,2.30
2006,12,12,17,56,2.00
2006,12,12,17,57,3.00
2006,12,12,17,58,2.60
2006,12,12,17,59,0.30
2006,12,12,18,00,0.20
2006,12,12,18,01,1.80